Lander, WY

6:27 PM MST on February 26, 2017 (GMT -0700)
South Pass

Weather History for KFWZ - March, 2012

Change the Weather History Date:

Wednesday, March 21, 2012

  Actual Average (KLND) Record (KLND)
Temperature  
Mean Temperature 34 °F -  
Max Temperature 42 °F 49 °F 71 °F (1910)
Min Temperature 26 °F 24 °F -14 °F (1912)
Degree Days  
Heating Degree Days 31    
Moisture  
Dew Point 22 °F    
Average Humidity 59    
Maximum Humidity 86    
Minimum Humidity 45    
Precipitation  
Precipitation 0.00 in - - ()
Sea Level Pressure  
Sea Level Pressure 30.01 in    
Wind  
Wind Speed 9 mph ()    
Max Wind Speed 16 mph    
Max Gust Speed 20 mph    
Visibility 10.0 miles    
Events      
Averages and records for this station are not official NWS values.
T = Trace of Precipitation, MM = Missing Value Source: Averaged Metar Reports

Daily Weather History Graph

Daily Weather History Graph

Search for Another Location

Airport or City:

Trip Planner

Search our weather history database for the weather conditions in past years. The results will help you decide how hot, cold, wet, or windy it might be!

Date:

Astronomy

Mar. 21, 2012 Rise Set
Actual Time 7:15 AM MDT 7:29 PM MDT
Civil Twilight 6:47 AM MDT 7:57 PM MDT
Nautical Twilight 6:14 AM MDT 8:30 PM MDT
Astronomical Twilight 5:40 AM MDT 9:04 PM MDT
Moon 6:28 AM MDT (3/21) 6:59 PM MDT (3/21)
Length of Visible Light 13h 09m
Length of Day
12h 13m
Waning Crescent, 1% of the Moon is Illuminated
Mar 21
Waning Crescent
Mar 22
New
Mar 30
First Quarter
Apr 6
Full
Apr 13
Last Quarter

Hourly Weather History & Observations

Time (MDT) Temp. Windchill Dew Point Humidity Pressure Visibility Wind Dir Wind Speed Gust Speed Precip Events Conditions
12:15 AM 30.2 °F 20.2 °F 23.0 °F 75% - 10.0 mi WSW 12.7 mph - N/A   Clear
12:35 AM 28.4 °F 17.5 °F 23.0 °F 80% - 10.0 mi West 13.8 mph - N/A   Clear
12:55 AM 28.4 °F 19.1 °F 23.0 °F 80% - 10.0 mi West 10.4 mph - N/A   Clear
1:15 AM 28.4 °F 19.7 °F 21.2 °F 74% - 10.0 mi West 9.2 mph - N/A   Clear
1:55 AM 28.4 °F 17.0 °F 23.0 °F 80% - 10.0 mi WSW 15.0 mph - N/A   Clear
2:15 AM 28.4 °F 16.6 °F 23.0 °F 80% - 10.0 mi WSW 16.1 mph - N/A   Clear
2:35 AM 26.6 °F 14.7 °F 23.0 °F 86% - 10.0 mi WSW 15.0 mph - N/A   Clear
2:55 AM 26.6 °F 17.5 °F 21.2 °F 80% - 10.0 mi WSW 9.2 mph - N/A   Clear
3:15 AM 26.6 °F 15.2 °F 23.0 °F 86% - 10.0 mi WSW 13.8 mph - N/A   Clear
3:35 AM 26.6 °F 14.7 °F 23.0 °F 86% - 10.0 mi WSW 15.0 mph - N/A   Clear
3:55 AM 26.6 °F 15.7 °F 21.2 °F 80% - 10.0 mi WSW 12.7 mph - N/A   Clear
4:15 AM 28.4 °F 19.7 °F 21.2 °F 74% - 10.0 mi West 9.2 mph - N/A   Clear
4:35 AM 28.4 °F 19.7 °F 21.2 °F 74% - 10.0 mi WSW 9.2 mph - N/A   Clear
4:55 AM 28.4 °F 19.7 °F 21.2 °F 74% - 10.0 mi WSW 9.2 mph - N/A   Clear
5:15 AM 30.2 °F 21.9 °F 19.4 °F 64% - 10.0 mi West 9.2 mph - N/A   Clear
5:35 AM 30.2 °F 21.9 °F 19.4 °F 64% - 10.0 mi West 9.2 mph - N/A   Clear
5:55 AM 30.2 °F 24.3 °F 19.4 °F 64% - 10.0 mi West 5.8 mph - N/A   Clear
6:15 AM 30.2 °F 20.8 °F 19.4 °F 64% - 10.0 mi West 11.5 mph 17.3 mph N/A   Clear
6:35 AM 30.2 °F 21.9 °F 19.4 °F 64% - 10.0 mi West 9.2 mph 17.3 mph N/A   Clear
6:55 AM 30.2 °F 20.8 °F 17.6 °F 60% - 10.0 mi West 11.5 mph - N/A   Clear
7:15 AM 30.2 °F 21.3 °F 19.4 °F 64% - 10.0 mi West 10.4 mph 19.6 mph N/A   Clear
7:35 AM 30.2 °F 21.9 °F 19.4 °F 64% - 10.0 mi West 9.2 mph 17.3 mph N/A   Clear
7:55 AM 30.2 °F 22.6 °F 19.4 °F 64% - 10.0 mi West 8.1 mph - N/A   Clear
8:15 AM 30.2 °F 24.3 °F 19.4 °F 64% - 10.0 mi West 5.8 mph - N/A   Clear
8:35 AM 30.2 °F 22.6 °F 17.6 °F 60% - 10.0 mi West 8.1 mph - N/A   Clear
8:55 AM 32.0 °F 25.6 °F 17.6 °F 55% - 10.0 mi West 6.9 mph - N/A   Clear
9:15 AM 33.8 °F 27.0 °F 17.6 °F 52% 30.00 in 10.0 mi West 8.1 mph - N/A   Clear
9:35 AM 35.6 °F 29.9 °F 17.6 °F 48% 30.00 in 10.0 mi WSW 6.9 mph - N/A   Clear
9:55 AM 37.4 °F 31.4 °F 19.4 °F 48% 30.00 in 10.0 mi WSW 8.1 mph - N/A   Clear
10:15 AM 35.6 °F 28.6 °F 21.2 °F 56% 30.00 in 10.0 mi WSW 9.2 mph - N/A   Clear
10:35 AM 35.6 °F 28.0 °F 21.2 °F 56% 30.01 in 10.0 mi WSW 10.4 mph - N/A   Clear
11:15 AM 39.2 °F 33.0 °F 23.0 °F 52% 30.01 in 10.0 mi WSW 9.2 mph - N/A   Clear
11:35 AM 39.2 °F 32.5 °F 23.0 °F 52% 30.01 in 10.0 mi WSW 10.4 mph - N/A   Clear
11:55 AM 39.2 °F 33.0 °F 23.0 °F 52% 30.01 in 10.0 mi WSW 9.2 mph - N/A   Clear
12:15 PM 41.0 °F 35.8 °F 24.8 °F 53% 30.01 in 10.0 mi WSW 8.1 mph - N/A   Clear
12:35 PM 39.2 °F 33.6 °F 24.8 °F 56% 30.02 in 10.0 mi WSW 8.1 mph - N/A   Clear
12:55 PM 41.0 °F 34.7 °F 24.8 °F 53% 30.01 in 10.0 mi WSW 10.4 mph - N/A   Clear
1:15 PM 41.0 °F 34.7 °F 26.6 °F 57% 30.01 in 10.0 mi WSW 10.4 mph - N/A   Clear
1:35 PM 42.8 °F 37.0 °F 24.8 °F 49% 30.01 in 10.0 mi WSW 10.4 mph - N/A   Clear
1:55 PM 42.8 °F 36.2 °F 26.6 °F 53% 30.01 in 10.0 mi WSW 12.7 mph 17.3 mph N/A   Clear
2:15 PM 42.8 °F 35.8 °F 24.8 °F 49% 30.01 in 10.0 mi WSW 13.8 mph - N/A   Clear
2:35 PM 42.8 °F 37.0 °F 24.8 °F 49% 30.01 in 10.0 mi WSW 10.4 mph - N/A   Clear
2:55 PM 42.8 °F 37.5 °F 24.8 °F 49% 30.01 in 10.0 mi WSW 9.2 mph - N/A   Clear
3:15 PM 42.8 °F 37.5 °F 23.0 °F 46% 30.01 in 10.0 mi WSW 9.2 mph 16.1 mph N/A   Clear
3:35 PM 42.8 °F 36.6 °F 24.8 °F 49% 30.01 in 10.0 mi WSW 11.5 mph - N/A   Clear
3:55 PM 42.8 °F 36.6 °F 24.8 °F 49% 30.01 in 10.0 mi WSW 11.5 mph 17.3 mph N/A   Clear
4:15 PM 42.8 °F 38.0 °F 24.8 °F 49% 30.02 in 10.0 mi WSW 8.1 mph - N/A   Clear
4:35 PM 42.8 °F 36.6 °F 23.0 °F 46% 30.02 in 10.0 mi WSW 11.5 mph - N/A   Clear
4:55 PM 42.8 °F 36.6 °F 23.0 °F 46% 30.01 in 10.0 mi WSW 11.5 mph - N/A   Clear
5:15 PM 42.8 °F 36.6 °F 23.0 °F 46% 30.01 in 10.0 mi WSW 11.5 mph - N/A   Clear
5:35 PM 42.8 °F 36.6 °F 23.0 °F 46% 30.01 in 10.0 mi WSW 11.5 mph - N/A   Clear
5:55 PM 41.0 °F 34.7 °F 24.8 °F 53% 30.00 in 10.0 mi West 10.4 mph - N/A   Clear
6:15 PM 41.0 °F 35.2 °F 23.0 °F 49% 30.00 in 10.0 mi West 9.2 mph - N/A   Clear
6:35 PM 41.0 °F 35.2 °F 23.0 °F 49% 30.01 in 10.0 mi WSW 9.2 mph - N/A   Clear
6:55 PM 41.0 °F 35.2 °F 23.0 °F 49% 30.01 in 10.0 mi WSW 9.2 mph - N/A   Clear
7:15 PM 41.0 °F 36.4 °F 23.0 °F 49% 30.00 in 10.0 mi West 6.9 mph - N/A   Clear
7:35 PM 41.0 °F 37.1 °F 23.0 °F 49% 30.01 in 10.0 mi NNW 5.8 mph - N/A   Clear
7:55 PM 39.2 °F 37.0 °F 23.0 °F 52% 30.02 in 10.0 mi West 3.5 mph - N/A   Clear
8:35 PM 41.0 °F - 21.2 °F 45% 30.03 in 10.0 mi Calm Calm - N/A   Clear
8:55 PM 39.2 °F - 21.2 °F 49% 30.03 in 10.0 mi Calm Calm - N/A   Clear
9:15 PM 37.4 °F 34.9 °F 21.2 °F 52% 30.03 in 10.0 mi WSW 3.5 mph - N/A   Clear
9:35 PM 39.2 °F 35.0 °F 21.2 °F 49% 30.03 in 10.0 mi WSW 5.8 mph - N/A   Clear
10:15 PM 37.4 °F - 19.4 °F 48% 30.03 in 10.0 mi Calm Calm - N/A   Clear
10:35 PM 35.6 °F 30.7 °F 21.2 °F 56% 30.03 in 10.0 mi North 5.8 mph - N/A   Clear
11:15 PM 35.6 °F - 19.4 °F 52% 30.03 in 10.0 mi Calm Calm - N/A   Clear
11:35 PM 35.6 °F - 19.4 °F 52% 30.03 in 10.0 mi Calm Calm - N/A   Clear
11:55 PM 37.4 °F - 19.4 °F 48% 30.04 in 10.0 mi Calm Calm - N/A   Clear